Regional Weather Roundup
Issued by NWS Lake Charles, LA

Home | Current Version | Previous Version | Text Only | Print | Product List | Glossary On
Versions: 1 2 3 4 5 6 7 8 9 10 11 12 13 14 15 16 17 18 19 20 21 22 23 24 25 26 27 28 29 30 31 32 33 34 35 36 37 38 39 40 41 42 43 44 45 46 47 48 49 50
000
ASUS44 KLCH 021610
RWRLCH
RWRLCH
REGIONAL WEATHER ROUNDUP
NATIONAL WEATHER SERVICE LAKE CHARLES LA
1100 AM CDT THU JUL 02 2015

Note: "fair" indicates few or no clouds below 12,000 feet with no
significant weather and/or obstructions to visibility.


ACROSS SOUTHEAST TEXAS

CITY           SKY/WX    TMP DP  RH WIND       PRES   REMARKS
BEAUMONT       PTSUNNY   88  77  69 S8        30.06S HX 100
BEAUMONT CITY  NOT AVBL
ORANGE         PTSUNNY   85  78  77 S9        30.08F
JASPER         NOT AVBL
$$

ACROSS CENTRAL LOUISIANA

CITY           SKY/WX    TMP DP  RH WIND       PRES   REMARKS
LEESVILLE      PTSUNNY   82  73  74 S9        30.06F
FULLERTON        N/A     86  73  65 VRB3      30.05S
ALEXANDRIA INT PTSUNNY   82  73  74 SW9       30.05F
ESLER FIELD    PTSUNNY   86  71  60 SW7       30.07F
DERIDDER         N/A     81  73  75 S6        30.09F
OAKDALE        NOT AVBL
OPELOUSAS      NOT AVBL
$$

ACROSS SOUTHWEST AND SOUTH CENTRAL LOUISIANA

CITY           SKY/WX    TMP DP  RH WIND       PRES   REMARKS
SULPHUR        NOT AVBL
LAKE CHARLES   PTSUNNY   85  76  74 SW9       30.07F
CHENNAULT INT  PTSUNNY   84  77  79 S7        30.08S
CAMERON PHI    SUNNY     84  75  74 S10       30.11S
DEQUINCY       NOT AVBL
JENNINGS       NOT AVBL
LAFAYETTE      CLOUDY    84  76  76 S7        30.09S
NEW IBERIA     NOT AVBL
ABBEVILLE      NOT AVBL
PATTERSON      PTSUNNY   86  75  70 S7        30.11S
SALT POINT       N/A     86  78  77 SW7       30.08S
$$

SELECTED SITES ACROSS THE REGION

CITY           SKY/WX    TMP DP  RH WIND       PRES   REMARKS
HOUSTON BUSH   CLOUDY    85  76  74 S8        30.04F
HOUSTON HOBBY  CLOUDY    86  76  71 S8        30.04F
GALVESTON      PTSUNNY   86  78  77 S12       30.07S
COLLEGE STAT   CLOUDY    82  74  76 S13       30.04F
CONROE         PTSUNNY   82  74  76 S13G21    30.06S
HUNTSVILLE     PTSUNNY   84  74  71 S10       30.05F
LUFKIN         PTSUNNY   85  74  69 S9        30.04F
SHREVEPORT     PTSUNNY   85  70  60 SW15G24   30.02F
MONROE         CLOUDY    82  71  69 SW12      30.05S
NATCHEZ MS     CLOUDY    81  70  69 SW8       30.09F
BATON ROUGE    CLOUDY    84  76  76 SW7       30.10R
N.O. INTL ARPT CLOUDY    85  75  72 S7        30.11R
SLIDELL        CLOUDY    85  79  82 VRB6      30.10S
$$

MARINE REPORTS

STATION/POSITION TIME  TEMP    WIND        PRES    VSBY  WAVE
                       AIR SEA DIR/SP/G                  HT/PER
                 (UTC) (F)     (DEG/KT/KT) (MB)    (MI)  (FT/S)
BUOY 30 S HIGH I 1550   84 83  170/ 10/ 10 1017.7R         3/ 7
SEA RIM ST PARK  1600   84     190/  9/ 11 1018.9R
PORT ARTHUR      1500      82  170/  5/  7 1018.4R
SABINE PASS N    1500   84 83  190/  5/  9 1018.6R
TEXAS POINT      NOT AVBL
CALCASIEU PASS   1500   83 83  230/  7/  9   N/A
LK CHARLES BEACH 1500   85 83                N/A
MARSH ISLAND     1500   87     200/  1/  5   N/A           0
FRESH WATER LOCK 1500   84 84  200/  8/ 10 1018.8R
AMERADA PASS     1500   85 82  190/  2/  6 1019.2R
$$



USA.gov is the U.S. government's official web portal to all federal, state and local government web resources and services.